Showing default

LEMUR 2 CAEL, 58903

Orbit data source: Space-Track

LEMUR 2 CAEL, 58903 is an American payload satellite in SSO that was launched on Wed, 31 Jan 2024 UTC via an ELECTRON launch vehicle from the Rocket Lab Launch Complex (RLLC). Payload-class satellites include a variety of spacecraft equipped with specific instruments for various scientific and technological missions. These include communications satellites like Starlink; space stations such as the ISS; scientific satellites like the Hubble; Earth observation satellites from companies like Planet Labs, Umbra, and HawkEye 360; GPS; miniature CubeSats for education and research; and military/defense satellites.

Loading next visibility...
Identifier
58903, 2024-022E
Orbit
SSO
Last TLE update
17 hours ago
Origin
Manufacturer
Spire/Glasgow
Mission
Operational Commercial Early Warn
Bus & Motor
CUBESAT 3U, Unknown motor
Mass
~25 kg wet, ~25 kg dry
Launch date (UTC)
2024-01-31 (1 year ago)
Launch vehicle
ELECTRON
Launch site
Rocket Lab Launch Complex (RLLC)
Object type
Payload
Rocket body
Debris
Shape & HBR
Box + 2 Pan, 1 m
Radar Cross Section
0.146 m², Small (<0.1 m²)

Expand to show TLE details & history

TLE from 17 hours ago
0 LEMUR 2 CAEL
1 58903U 24022E   25128.51008246  .00013250  00000-0  49401-3 0  9991
2 58903  97.4510 332.1411 0012087 100.7236 259.5364 15.27490037 70318
Epoch: 2025-05-08T12:14Z
Definitive object data (Epoch: 2025-05-08T12:14:31.124Z)
Latitude
-0.00008°
Longitude
-78.06812°
Altitude
487.934 km
Speed
7.62 km/s
True Right ascension
22h 08m 33s
True Declination
0° 00' 00"
Sunlit
Object was in daylight at TLE epoch
Visualization TLE readout
Latitude
-29.113°
Longitude
-73.20004°
Altitude
499.287 km
Speed
7.611 km/s
Apparent Right ascension
23h 50m 36s
Apparent Declination
-36° 22' 42"
Sunlit
Object is in daylight
Visualization observer readout
Local Sidereal Time
13:33:10
Azimuth
88.219° E
Elevation
-69.6°
Doppler factor
1
Orbital elements
Apogee altitude
488.566 km
Perigee altitude
471.987 km
Semi-major axis
6,858.413 km
Eccentricity
0.0012087
Inclination
97.451°
RAAN
332.1411°
Arg. of periapsis
100.7236°
True anomaly
259.40023°
Mean anomaly
259.5364°
Eccentric anomaly
259.46831°
Mean motion
3.82127 °/min
BSTAR
0.00049401
Orbital period
94.21 mins
Loading maneuver chart data...
Loading SW <> Apogee altitude chart data...
Loading historical data...
Loading historical data...
Loading historical data...
Loading historical data...
Loading historical data...
Loading historical data...
Loading historical data...

LEMUR 2 CAEL Visibility forecast

Observer location: undefined°, undefined°

Span
Click to sort rows by Start time (UTC) header in descending order
Start Az.
Max El. time (UTC)
Max El. Az.
Max El.
End time (UTC)
End Az.
6 mins2025-05-09 13:31:30.292Z163.338° S2025-05-09 13:34:30.292Z43.28° NE44.502°2025-05-09 13:37:30.292Z350.423° N
5 mins2025-05-10 02:32:30.292Z5.154° NNE2025-05-10 02:34:30.292Z332.763° NNW41.662°2025-05-10 02:37:30.292Z201.494° SSW
|